Time,TemperatureF,DewpointF,PressureIn,WindDirection,WindDirectionDegrees,WindSpeedMPH,WindSpeedGustMPH,Humidity,HourlyPrecipIn,Conditions,Clouds,dailyrainin,SoftwareType,DateUTC
2013-01-18 00:05:00,25.8,11.0,30.14,NE,34,21.0,23.0,53,0.00,,,0.00,weatherlink.com 1.10,2013-01-18 05:05:00,
2013-01-18 00:20:00,25.5,11.0,30.13,NE,44,12.0,17.0,55,0.00,,,0.00,weatherlink.com 1.10,2013-01-18 05:20:00,
2013-01-18 00:35:00,25.3,11.0,30.14,NNE,25,12.0,17.0,55,0.00,,,0.00,weatherlink.com 1.10,2013-01-18 05:35:00,
2013-01-18 00:50:00,25.0,11.0,30.11,NNE,28,13.0,16.0,55,0.00,,,0.00,weatherlink.com 1.10,2013-01-18 05:50:00,
2013-01-18 01:05:00,24.7,11.0,30.11,NNE,25,17.0,17.0,55,0.00,,,0.00,weatherlink.com 1.10,2013-01-18 06:05:00,
2013-01-18 01:20:00,24.7,10.0,30.12,NNE,18,19.0,22.0,54,0.00,,,0.00,weatherlink.com 1.10,2013-01-18 06:20:00,
2013-01-18 01:35:00,24.6,12.0,30.15,North,5,19.0,24.0,58,0.00,,,0.00,weatherlink.com 1.10,2013-01-18 06:35:00,
2013-01-18 01:50:00,24.4,11.0,30.16,NNE,18,18.0,23.0,56,0.00,,,0.00,weatherlink.com 1.10,2013-01-18 06:50:00,
2013-01-18 02:05:00,24.3,11.0,30.16,NNE,13,18.0,21.0,57,0.00,,,0.00,weatherlink.com 1.10,2013-01-18 07:05:00,
2013-01-18 02:20:00,24.0,11.0,30.17,NNW,346,21.0,28.0,58,0.00,,,0.00,weatherlink.com 1.10,2013-01-18 07:20:00,
2013-01-18 02:35:00,23.8,12.0,30.16,NNE,13,25.0,26.0,61,0.00,,,0.00,weatherlink.com 1.10,2013-01-18 07:35:00,
2013-01-18 02:50:00,23.5,12.0,30.18,North,7,24.0,26.0,61,0.00,,,0.00,weatherlink.com 1.10,2013-01-18 07:50:00,
2013-01-18 03:06:00,23.0,11.0,30.16,North,356,25.0,27.0,60,0.00,,,0.00,weatherlink.com 1.10,2013-01-18 08:06:00,
2013-01-18 03:21:00,22.9,12.0,30.18,NNW,347,22.0,29.0,62,0.00,,,0.00,weatherlink.com 1.10,2013-01-18 08:21:00,
2013-01-18 03:36:00,22.6,11.0,30.19,NNW,333,18.0,27.0,62,0.00,,,0.00,weatherlink.com 1.10,2013-01-18 08:36:00,
2013-01-18 03:51:00,22.2,10.0,30.20,NNW,337,21.0,22.0,59,0.00,,,0.00,weatherlink.com 1.10,2013-01-18 08:51:00,
2013-01-18 04:06:00,22.3,11.0,30.21,North,349,19.0,21.0,62,0.00,,,0.00,weatherlink.com 1.10,2013-01-18 09:06:00,
2013-01-18 04:21:00,22.2,11.0,30.22,North,349,17.0,20.0,61,0.00,,,0.00,weatherlink.com 1.10,2013-01-18 09:21:00,
2013-01-18 04:36:00,22.3,10.0,30.23,NNW,347,18.0,23.0,60,0.00,,,0.00,weatherlink.com 1.10,2013-01-18 09:36:00,
2013-01-18 04:51:00,22.1,10.0,30.24,North,359,20.0,24.0,59,0.00,,,0.00,weatherlink.com 1.10,2013-01-18 09:51:00,
2013-01-18 05:06:00,21.8,9.0,30.25,North,356,20.0,23.0,59,0.00,,,0.00,weatherlink.com 1.10,2013-01-18 10:06:00,
2013-01-18 05:21:00,21.6,11.0,30.26,NNW,343,18.0,24.0,64,0.00,,,0.00,weatherlink.com 1.10,2013-01-18 10:21:00,
2013-01-18 05:36:00,21.3,10.0,30.27,NNW,338,16.0,23.0,63,0.00,,,0.00,weatherlink.com 1.10,2013-01-18 10:36:00,
2013-01-18 05:51:00,21.1,10.0,30.28,North,354,17.0,21.0,62,0.00,,,0.00,weatherlink.com 1.10,2013-01-18 10:51:00,
2013-01-18 06:06:00,21.1,10.0,30.29,North,6,17.0,21.0,62,0.00,,,0.00,weatherlink.com 1.10,2013-01-18 11:06:00,
2013-01-18 06:21:00,20.8,8.0,30.30,NNW,345,15.0,19.0,58,0.00,,,0.00,weatherlink.com 1.10,2013-01-18 11:21:00,
2013-01-18 06:36:00,20.7,7.0,30.31,NNW,345,16.0,24.0,55,0.00,,,0.00,weatherlink.com 1.10,2013-01-18 11:36:00,
2013-01-18 06:51:00,20.4,6.0,30.33,NNW,342,18.0,25.0,54,0.00,,,0.00,weatherlink.com 1.10,2013-01-18 11:51:00,
2013-01-18 07:06:00,20.3,4.0,30.34,NNW,342,20.0,24.0,50,0.00,,,0.00,weatherlink.com 1.10,2013-01-18 12:06:00,
2013-01-18 07:21:00,20.2,3.0,30.35,North,360,17.0,26.0,48,0.00,,,0.00,weatherlink.com 1.10,2013-01-18 12:21:00,
2013-01-18 07:36:00,19.9,2.0,30.37,NNE,18,21.0,25.0,45,0.00,,,0.00,weatherlink.com 1.10,2013-01-18 12:36:00,
2013-01-18 07:51:00,19.8,2.0,30.38,NNW,345,17.0,20.0,45,0.00,,,0.00,weatherlink.com 1.10,2013-01-18 12:51:00,
2013-01-18 08:06:00,20.0,1.0,30.39,North,349,13.0,23.0,44,0.00,,,0.00,weatherlink.com 1.10,2013-01-18 13:06:00,
2013-01-18 08:21:00,20.1,-1.0,30.39,NW,314,21.0,22.0,39,0.00,,,0.00,weatherlink.com 1.10,2013-01-18 13:21:00,
2013-01-18 08:37:00,20.0,0.0,30.41,NNW,336,16.0,20.0,41,0.00,,,0.00,weatherlink.com 1.10,2013-01-18 13:37:00,
2013-01-18 08:52:00,19.7,-2.0,30.42,North,4,23.0,24.0,38,0.00,,,0.00,weatherlink.com 1.10,2013-01-18 13:52:00,
2013-01-18 09:07:00,19.6,-1.0,30.43,North,8,20.0,24.0,41,0.00,,,0.00,weatherlink.com 1.10,2013-01-18 14:07:00,
2013-01-18 09:22:00,19.8,-1.0,30.44,North,360,16.0,20.0,40,0.00,,,0.00,weatherlink.com 1.10,2013-01-18 14:22:00,
2013-01-18 09:37:00,19.9,-2.0,30.45,NNW,333,14.0,21.0,39,0.00,,,0.00,weatherlink.com 1.10,2013-01-18 14:37:00,
2013-01-18 09:52:00,19.9,-1.0,30.46,NNW,340,16.0,23.0,40,0.00,,,0.00,weatherlink.com 1.10,2013-01-18 14:52:00,
2013-01-18 10:07:00,19.7,-2.0,30.46,NNE,23,11.0,16.0,38,0.00,,,0.00,weatherlink.com 1.10,2013-01-18 15:07:00,
2013-01-18 10:22:00,20.2,1.0,30.46,North,353,21.0,21.0,44,0.00,,,0.00,weatherlink.com 1.10,2013-01-18 15:22:00,
2013-01-18 10:37:00,20.4,1.0,30.46,NNE,18,9.0,12.0,43,0.00,,,0.00,weatherlink.com 1.10,2013-01-18 15:37:00,
2013-01-18 10:52:00,20.3,0.0,30.46,NE,50,3.0,10.0,41,0.00,,,0.00,weatherlink.com 1.10,2013-01-18 15:52:00,
2013-01-18 11:07:00,20.6,0.0,30.46,NNE,30,6.0,10.0,41,0.00,,,0.00,weatherlink.com 1.10,2013-01-18 16:07:00,
2013-01-18 11:22:00,20.8,0.0,30.45,NNE,23,2.0,9.0,41,0.00,,,0.00,weatherlink.com 1.10,2013-01-18 16:22:00,
2013-01-18 11:37:00,21.9,4.0,30.44,NNW,336,13.0,18.0,46,0.00,,,0.00,weatherlink.com 1.10,2013-01-18 16:37:00,
2013-01-18 11:53:00,22.9,3.0,30.43,NW,315,21.0,31.0,42,0.00,,,0.00,weatherlink.com 1.10,2013-01-18 16:53:00,
2013-01-18 12:08:00,23.2,4.0,30.42,North,4,26.0,26.0,43,0.00,,,0.00,weatherlink.com 1.10,2013-01-18 17:08:00,
2013-01-18 12:23:00,23.5,3.0,30.43,WNW,302,9.0,22.0,41,0.00,,,0.00,weatherlink.com 1.10,2013-01-18 17:23:00,
2013-01-18 12:38:00,24.0,4.0,30.43,NNW,344,10.0,16.0,42,0.00,,,0.00,weatherlink.com 1.10,2013-01-18 17:38:00,
2013-01-18 12:53:00,24.6,4.0,30.42,WNW,299,14.0,18.0,41,0.00,,,0.00,weatherlink.com 1.10,2013-01-18 17:53:00,
2013-01-18 13:08:00,24.7,6.0,30.43,NNW,343,12.0,19.0,45,0.00,,,0.00,weatherlink.com 1.10,2013-01-18 18:08:00,
2013-01-18 13:23:00,24.8,5.0,30.44,NNW,328,9.0,18.0,42,0.00,,,0.00,weatherlink.com 1.10,2013-01-18 18:23:00,
2013-01-18 13:38:00,25.2,5.0,30.45,West,278,9.0,14.0,42,0.00,,,0.00,weatherlink.com 1.10,2013-01-18 18:38:00,
2013-01-18 13:53:00,25.1,5.0,30.44,North,349,12.0,12.0,43,0.00,,,0.00,weatherlink.com 1.10,2013-01-18 18:53:00,
2013-01-18 14:08:00,26.1,6.0,30.44,South,184,0.0,7.0,42,0.00,,,0.00,weatherlink.com 1.10,2013-01-18 19:08:00,
2013-01-18 14:23:00,25.7,4.0,30.44,NNW,336,0.0,11.0,40,0.00,,,0.00,weatherlink.com 1.10,2013-01-18 19:23:00,
2013-01-18 14:39:00,25.4,4.0,30.44,North,352,0.0,7.0,40,0.00,,,0.00,weatherlink.com 1.10,2013-01-18 19:39:00,
2013-01-18 14:53:00,25.7,5.0,30.43,SE,146,0.0,4.0,42,0.00,,,0.00,weatherlink.com 1.10,2013-01-18 19:53:00,
2013-01-18 15:09:00,26.1,5.0,30.44,SSE,156,2.0,3.0,40,0.00,,,0.00,weatherlink.com 1.10,2013-01-18 20:09:00,
2013-01-18 15:24:00,26.5,6.0,30.43,ENE,74,2.0,3.0,41,0.00,,,0.00,weatherlink.com 1.10,2013-01-18 20:24:00,
2013-01-18 15:39:00,26.7,6.0,30.43,NW,326,2.0,7.0,41,0.00,,,0.00,weatherlink.com 1.10,2013-01-18 20:39:00,
2013-01-18 15:54:00,26.9,7.0,30.44,WSW,256,4.0,12.0,43,0.00,,,0.00,weatherlink.com 1.10,2013-01-18 20:54:00,
2013-01-18 16:09:00,26.5,7.0,30.44,WSW,239,6.0,13.0,43,0.00,,,0.00,weatherlink.com 1.10,2013-01-18 21:09:00,
2013-01-18 16:24:00,26.4,8.0,30.44,NW,304,5.0,8.0,46,0.00,,,0.00,weatherlink.com 1.10,2013-01-18 21:24:00,
2013-01-18 16:39:00,26.0,7.0,30.44,WSW,243,9.0,10.0,45,0.00,,,0.00,weatherlink.com 1.10,2013-01-18 21:39:00,
2013-01-18 16:54:00,25.3,8.0,30.44,WSW,247,2.0,6.0,47,0.00,,,0.00,weatherlink.com 1.10,2013-01-18 21:54:00,
2013-01-18 17:24:00,25.0,9.0,30.45,WNW,302,0.0,5.0,50,0.00,,,0.00,weatherlink.com 1.10,2013-01-18 22:24:00,
2013-01-18 17:39:00,24.8,8.0,30.45,SSW,193,4.0,5.0,49,0.00,,,0.00,weatherlink.com 1.10,2013-01-18 22:39:00,
2013-01-18 17:54:00,24.6,10.0,30.46,WSW,238,2.0,6.0,53,0.00,,,0.00,weatherlink.com 1.10,2013-01-18 22:54:00,
2013-01-18 18:09:00,24.4,10.0,30.45,SSE,159,5.0,8.0,54,0.00,,,0.00,weatherlink.com 1.10,2013-01-18 23:09:00,
2013-01-18 18:24:00,24.8,11.0,30.45,NE,45,3.0,11.0,57,0.00,,,0.00,weatherlink.com 1.10,2013-01-18 23:24:00,
2013-01-18 18:40:00,24.8,11.0,30.46,NE,43,2.0,13.0,55,0.00,,,0.00,weatherlink.com 1.10,2013-01-18 23:40:00,
2013-01-18 18:55:00,24.4,10.0,30.45,South,190,5.0,10.0,54,0.00,,,0.00,weatherlink.com 1.10,2013-01-18 23:55:00,
2013-01-18 19:10:00,24.4,11.0,30.45,South,181,5.0,8.0,56,0.00,,,0.00,weatherlink.com 1.10,2013-01-19 00:10:00,
2013-01-18 19:25:00,24.7,11.0,30.43,South,182,14.0,14.0,57,0.00,,,0.00,weatherlink.com 1.10,2013-01-19 00:25:00,
2013-01-18 19:40:00,24.5,11.0,30.44,South,186,8.0,17.0,57,0.00,,,0.00,weatherlink.com 1.10,2013-01-19 00:40:00,
2013-01-18 19:55:00,24.8,12.0,30.44,North,349,9.0,16.0,58,0.00,,,0.00,weatherlink.com 1.10,2013-01-19 00:55:00,
2013-01-18 20:10:00,24.7,11.0,30.44,SSW,193,10.0,21.0,57,0.00,,,0.00,weatherlink.com 1.10,2013-01-19 01:10:00,
2013-01-18 20:25:00,24.4,11.0,30.44,WSW,238,10.0,16.0,57,0.00,,,0.00,weatherlink.com 1.10,2013-01-19 01:25:00,
2013-01-18 20:40:00,24.4,11.0,30.42,South,172,10.0,22.0,58,0.00,,,0.00,weatherlink.com 1.10,2013-01-19 01:40:00,
2013-01-18 20:55:00,24.1,11.0,30.42,ENE,67,16.0,19.0,58,0.00,,,0.00,weatherlink.com 1.10,2013-01-19 01:55:00,
2013-01-18 21:10:00,24.1,12.0,30.41,South,187,16.0,21.0,59,0.00,,,0.00,weatherlink.com 1.10,2013-01-19 02:10:00,
2013-01-18 21:25:00,23.9,11.0,30.42,East,98,8.0,16.0,58,0.00,,,0.00,weatherlink.com 1.10,2013-01-19 02:25:00,
2013-01-18 21:40:00,23.6,10.0,30.42,SSE,149,10.0,11.0,57,0.00,,,0.00,weatherlink.com 1.10,2013-01-19 02:40:00,
2013-01-18 21:55:00,23.4,10.0,30.41,SSE,162,5.0,17.0,57,0.00,,,0.00,weatherlink.com 1.10,2013-01-19 02:55:00,
2013-01-18 22:10:00,23.5,10.0,30.40,WSW,239,10.0,16.0,57,0.00,,,0.00,weatherlink.com 1.10,2013-01-19 03:10:00,
2013-01-18 22:25:00,23.6,11.0,30.39,NNW,337,9.0,19.0,59,0.00,,,0.00,weatherlink.com 1.10,2013-01-19 03:25:00,
2013-01-18 22:40:00,23.8,11.0,30.38,ESE,108,10.0,20.0,59,0.00,,,0.00,weatherlink.com 1.10,2013-01-19 03:40:00,
2013-01-18 22:55:00,23.7,11.0,30.36,SSE,162,10.0,20.0,58,0.00,,,0.00,weatherlink.com 1.10,2013-01-19 03:55:00,
2013-01-18 23:10:00,24.0,13.0,30.36,West,266,7.0,23.0,63,0.00,,,0.00,weatherlink.com 1.10,2013-01-19 04:10:00,
2013-01-18 23:25:00,24.1,12.0,30.36,NE,56,10.0,25.0,59,0.00,,,0.00,weatherlink.com 1.10,2013-01-19 04:25:00,
2013-01-18 23:40:00,24.0,12.0,30.35,South,177,6.0,22.0,60,0.00,,,0.00,weatherlink.com 1.10,2013-01-19 04:40:00,
2013-01-18 23:55:00,24.3,12.0,30.34,South,191,13.0,18.0,61,0.00,,,0.00,weatherlink.com 1.10,2013-01-19 04:55:00,